TimeCDT,TemperatureF,Dew PointF,Humidity,Sea Level PressureIn,VisibilityMPH,Wind Direction,Wind SpeedMPH,Gust SpeedMPH,PrecipitationIn,Events,Conditions,WindDirDegrees,DateUTC
12:53 AM,77.0,72.0,84,29.92,10.0,Calm,Calm,-,N/A,,Clear,0,2013-07-20 05:53:00
1:53 AM,75.9,71.1,85,29.92,9.0,Calm,Calm,-,N/A,,Clear,0,2013-07-20 06:53:00
2:53 AM,77.0,71.1,82,29.91,8.0,Calm,Calm,-,N/A,,Clear,0,2013-07-20 07:53:00
3:53 AM,75.0,71.1,87,29.91,7.0,Calm,Calm,-,N/A,,Clear,0,2013-07-20 08:53:00
4:53 AM,73.9,71.1,91,29.91,7.0,SSW,3.5,-,N/A,,Clear,200,2013-07-20 09:53:00
5:53 AM,73.9,70.0,87,29.92,6.0,Calm,Calm,-,N/A,,Clear,0,2013-07-20 10:53:00
6:53 AM,75.0,71.1,87,29.92,7.0,South,4.6,-,N/A,,Clear,190,2013-07-20 11:53:00
7:53 AM,78.1,73.0,84,29.92,7.0,SSW,6.9,-,N/A,,Clear,200,2013-07-20 12:53:00
8:53 AM,81.0,72.0,74,29.92,10.0,SW,8.1,-,N/A,,Clear,230,2013-07-20 13:53:00
9:53 AM,82.9,72.0,69,29.92,10.0,SSW,6.9,-,N/A,,Clear,210,2013-07-20 14:53:00
10:53 AM,86.0,71.1,61,29.91,10.0,SSW,9.2,-,N/A,,Clear,200,2013-07-20 15:53:00
11:53 AM,87.1,72.0,61,29.89,10.0,SSW,9.2,-,N/A,,Clear,200,2013-07-20 16:53:00
12:53 PM,89.1,71.1,55,29.89,10.0,SSW,9.2,-,N/A,,Clear,210,2013-07-20 17:53:00
1:53 PM,91.0,72.0,53,29.87,10.0,SW,9.2,-,N/A,,Clear,220,2013-07-20 18:53:00
2:53 PM,91.9,71.1,50,29.83,10.0,SSW,9.2,-,N/A,,Clear,200,2013-07-20 19:53:00
3:53 PM,91.9,70.0,48,29.80,10.0,SSW,11.5,18.4,N/A,,Clear,210,2013-07-20 20:53:00
4:53 PM,90.0,70.0,52,29.82,10.0,SW,6.9,-,N/A,,Clear,220,2013-07-20 21:53:00
5:53 PM,81.0,66.9,62,29.83,10.0,NW,18.4,29.9,N/A,Thunderstorm,Thunderstorm,320,2013-07-20 22:53:00
6:53 PM,78.1,69.1,74,29.89,10.0,SE,6.9,-,N/A,Thunderstorm,Scattered Clouds,130,2013-07-20 23:53:00
7:22 PM,77.0,69.8,78,29.90,10.0,South,5.8,-,N/A,,Partly Cloudy,170,2013-07-21 00:22:00
7:53 PM,77.0,69.1,76,29.88,10.0,WSW,4.6,-,0.00,,Scattered Clouds,250,2013-07-21 00:53:00
8:53 PM,77.0,70.0,79,29.88,10.0,Calm,Calm,-,0.00,,Partly Cloudy,0,2013-07-21 01:53:00
9:53 PM,75.9,70.0,82,29.91,10.0,NNE,4.6,-,N/A,,Clear,20,2013-07-21 02:53:00
10:53 PM,75.9,70.0,82,29.91,10.0,Calm,Calm,-,N/A,,Clear,0,2013-07-21 03:53:00
11:53 PM,73.9,69.1,85,29.92,10.0,Calm,Calm,-,N/A,,Clear,0,2013-07-21 04:53:00